OBJECT R

基本信息
目录编号:
66681
目录名称:
OBJECT R
国际标识:
2025-276R
轨道中心:
EARTH
物体状态:
在轨
发射日期:
2025-11-28 UTC
国别:
(TBD)
轨道信息
数据来源: 国际轨道数据
星历时间: 2026-09-11T00:46:51+0800
半长轴: 6864.724km
偏心率: 0.0006119
轨道倾角: 97.406°
近地点辐角: 82.191°
升交点赤经: 326.764°
平近点角: 278.002°
近地点: 482.386km
远地点: 490.788km
周期: 94.340分钟
每日圈数: 15.263993
详细信息
发射场:
AFWTR
轨道高度:
LEO
数据来源:
AOE Integration Group
参考系:
TEME
时间系统:
UTC
历元类型:
SGP4
2D轨道图
3D轨道图
轨道高度分析图
轨道倾角分析图
轨道综合分析图
查看轨道综合分析图